Stations météo

réclame
Mon MeteoGroup
Putbus, Allemagne (10093): Température de l'air & dewpoint: 19.09.2018 23:00:00 - 25.09.2018 23:00:00 (CEST)Putbus, Allemagne (10093): Température de l'air 5cm & Température de l'air -5cm: 19.09.2018 23:00:00 - 25.09.2018 23:00:00 (CEST)Putbus, Allemagne (10093): Température de l'air -20cm & Température de l'air -100cm: 19.09.2018 23:00:00 - 25.09.2018 23:00:00 (CEST)Putbus, Allemagne (10093): Vitesse du vent & gusts: 19.09.2018 23:00:00 - 25.09.2018 23:00:00 (CEST)Putbus, Allemagne (10093): Direction du vent: 19.09.2018 23:00:00 - 25.09.2018 23:00:00 (CEST)Putbus, Allemagne (10093): reduced air pressure: 19.09.2018 23:00:00 - 25.09.2018 23:00:00 (CEST)Putbus, Allemagne (10093): visibility: 19.09.2018 23:00:00 - 25.09.2018 23:00:00 (CEST)Putbus, Allemagne (10093): Ensoleillement: 19.09.2018 23:00:00 - 25.09.2018 23:00:00 (CEST)Putbus, Allemagne (10093): Quantités de précipitations: 19.09.2018 23:00:00 - 25.09.2018 23:00:00 (CEST)
Date & Time tt [°C] td [°C] tt 5cm [°C] tt -5cm [°C] tt -20cm [°C] tt -100cm [°C] ff [km/h] ff [knt] fx [km/h] fx [knt] dd ppp [hPa] vv [km] sd [min] rr [mm]
25.09.2018 23:00:00 8,6 4,9 7,3 8,3 12,1 15,3 11 6 18 10 SW 1035,6 39 0 0,0
25.09.2018 22:00:00 8,4 4,9 7,0 8,7 12,6 15,3 13 7 21 11 WSW 1035,8 43 0 0,0
25.09.2018 21:00:00 8,7 4,8 7,4 9,4 13,1 15,3 11 6 18 10 WSW 1035,7 41 0 0,0
25.09.2018 20:00:00 8,3 4,6 6,6 10,4 13,6 15,4 12 6 16 9 W 1035,7 48 0 0,0
25.09.2018 19:00:00 10,2 3,9 8,4 11,9 13,9 15,4 13 7 29 16 W 1035,9 53 31 0,0
25.09.2018 18:00:00 11,7 4,5 10,7 14,5 13,9 15,4 18 10 38 20 W 1035,8 46 60 0,0
25.09.2018 17:00:00 12,2 4,9 13,2 16,3 13,6 15,4 24 13 34 18 W 1035,8 21 59 0,0
25.09.2018 16:00:00 13,2 5,2 15,9 16,9 13,1 15,5 14 8 32 17 WNW 1035,5 29 60 0,0
25.09.2018 15:00:00 12,9 3,6 16,0 16,8 12,4 15,5 17 9 33 18 WNW 1035,7 14 59 0,0
25.09.2018 14:00:00 12,8 3,2 16,5 16,2 11,6 15,5 19 10 35 19 WNW 1035,8 13 57 0,0
25.09.2018 13:00:00 12,6 2,2 16,3 14,6 10,9 15,5 21 11 35 19 NW 1035,5 16 55 0,0
25.09.2018 12:00:00 12,2 3,6 14,2 13,1 10,2 15,5 20 11 31 17 NW 1034,9 21 59 0,0
25.09.2018 11:00:00 12,1 4,4 15,2 11,3 9,6 15,5 18 10 29 16 NW 1034,3 11 59 0,0
25.09.2018 10:00:00 11,5 2,9 13,5 9,1 9,3 15,6 18 10 31 17 NNW 1033,6 15 60 0,0
25.09.2018 09:00:00 9,9 7,7 8,9 7,4 9,3 15,6 16 9 25 14 WNW 1032,8 26 56 0,0
25.09.2018 08:00:00 8,7 6,8 7,6 6,0 9,4 15,6 19 10 26 14 WNW 1032,0 36 19 0,0
25.09.2018 07:00:00 6,9 5,8 5,3 5,6 9,7 15,6 14 8 24 13 WNW 1031,4 33 0 0,0
25.09.2018 06:00:00 5,3 4,5 4,2 5,8 10,0 15,6 14 8 17 9 W 1030,9 36 0 1,6
25.09.2018 05:00:00 7,5 3,3 4,4 6,6 10,2 15,6 22 12 54 29 NNW 1030,4 0,9 0 5,5
25.09.2018 04:00:00 6,5 4,6 5,2 7,0 10,4 15,7 8 4 34 18 WNW 1030,0 70 0 3,4
25.09.2018 03:00:00 7,5 5,2 6,5 6,9 10,7 15,7 9 5 21 12 NNW 1029,2 45 0 0,0
25.09.2018 02:00:00 6,9 4,5 5,6 6,7 11,0 15,7 14 8 30 16 WNW 1028,7 52 0 5,4
25.09.2018 01:00:00 7,8 1,6 5,2 7,2 11,3 15,7 13 7 40 21 NNW 1028,5 1,9 0 1,7
25.09.2018 00:00:00 6,3 3,0 3,8 7,6 11,6 15,7 9 5 37 20 NNW 1027,5 62 0 1,0
24.09.2018 23:00:00 7,3 4,3 5,0 8,3 11,9 15,8 6 4 25 14 N 1026,5 52 0 0,4
24.09.2018 22:00:00 6,9 5,6 6,2 8,1 12,3 15,8 6 4 27 15 WNW 1026,1 40 0 1,6
24.09.2018 21:00:00 8,8 2,4 6,7 8,5 12,8 15,8 17 9 24 13 WNW 1025,0 46 0 0,0
24.09.2018 20:00:00 8,1 3,1 7,3 9,8 13,1 15,8 10 5 37 20 NNW 1024,4 49 0 0,1
24.09.2018 19:00:00 8,7 2,8 6,9 10,8 13,5 15,8 16 9 41 22 NW 1024,0 36 3 0,2
24.09.2018 18:00:00 9,5 2,9 8,7 12,2 13,6 15,9 9 5 31 17 NNE 1023,0 15 0 0,0
24.09.2018 17:00:00 11,5 4,5 12,1 13,7 13,6 15,9 18 10 40 22 WNW 1022,3 31 25 0,0
24.09.2018 16:00:00 11,3 4,6 11,4 14,6 13,3 15,9 19 10 42 23 WNW 1022,0 50 40 0,0
24.09.2018 15:00:00 12,3 4,6 15,3 15,4 12,8 15,9 26 14 49 26 NW 1021,7 13 60 0,0
24.09.2018 14:00:00 12,3 4,4 15,6 13,9 12,4 15,9 18 10 72 39 NW 1021,2 16 31 0,0
24.09.2018 13:00:00 12,1 5,1 14,7 14,2 11,8 16,0 38 20 58 31 NW 1020,4 10 58 0,0
24.09.2018 12:00:00 11,8 4,9 14,2 12,8 11,3 16,0 35 19 62 34 NW 1019,3 7 59 0,0
24.09.2018 11:00:00 12,1 5,4 14,2 11,2 11,0 16,0 34 18 53 29 NW 1018,0 9 60 0,0
24.09.2018 10:00:00 10,8 5,2 12,7 9,4 10,9 16,0 29 16 49 26 NW 1017,0 12 40 0,0
24.09.2018 09:00:00 10,8 6,3 9,9 8,4 10,9 16,0 27 14 48 26 NW 1015,7 7 35 0,0
24.09.2018 08:00:00 9,3 6,4 8,0 8,3 11,0 16,1 35 19 52 28 WNW 1014,8 11 0 0,1
24.09.2018 07:00:00 9,9 5,9 8,6 7,7 11,1 16,1 25 14 49 27 WNW 1013,9 34 0 0,0
24.09.2018 06:00:00 9,9 5,3 8,8 7,6 11,3 16,1 26 14 48 26 WNW 1013,3 38 0 0,0
24.09.2018 05:00:00 10,0 4,9 8,4 7,8 11,6 16,1 26 14 50 27 NW 1012,9 36 0 0,0
24.09.2018 04:00:00 9,9 6,1 8,3 8,1 11,8 16,1 25 14 43 23 WNW 1011,9 32 0 0,0
24.09.2018 03:00:00 9,9 6,5 8,7 8,2 12,1 16,2 22 12 34 18 WNW 1011,3 29 0 0,0
24.09.2018 02:00:00 9,6 6,2 8,0 8,4 12,4 16,2 20 11 32 17 WNW 1010,5 36 0 0,0
24.09.2018 01:00:00 9,6 6,5 7,9 8,9 12,7 16,2 18 10 30 16 WNW 1009,9 40 0 0,1
24.09.2018 00:00:00 9,7 6,9 8,7 9,4 13,0 16,2 18 10 27 15 W 1009,3 48 0 0,0
23.09.2018 23:00:00 9,8 6,9 8,5 10,1 13,2 16,2 16 8 23 12 WNW 1008,5 42 0 0,0
23.09.2018 22:00:00 9,8 7,8 8,9 10,6 13,5 16,3 14 8 19 10 WNW 1007,8 36 0 0,0
23.09.2018 21:00:00 9,5 8,3 9,0 11,0 13,7 16,3 14 8 27 14 WSW 1007,7 39 0 0,6
23.09.2018 20:00:00 8,8 7,5 8,3 11,4 14,0 16,3 22 12 35 19 WNW 1007,3 0,5 0 5,1
23.09.2018 19:00:00 10,7 8,0 10,2 12,3 14,2 16,3 5 3 14 8 W 1007,5 35 0 0,0
23.09.2018 18:00:00 10,0 6,9 10,2 12,9 14,4 16,4 8 4 32 17 NNW 1007,7 54 0 0,0
23.09.2018 17:00:00 11,6 8,8 11,5 14,0 14,4 16,4 10 5 21 12 NW 1008,1 32 0 0,0
23.09.2018 16:00:00 13,0 7,2 13,2 15,0 14,2 16,4 16 9 23 12 WSW 1009,1 37 0 0,0
23.09.2018 15:00:00 13,6 7,9 14,7 15,9 13,9 16,4 16 9 29 15 W 1009,5 26 22 0,0
23.09.2018 14:00:00 13,7 8,2 15,6 15,9 13,4 16,4 18 10 31 17 WSW 1010,2 27 33 0,0
23.09.2018 13:00:00 13,2 8,3 14,4 15,2 12,8 16,5 22 12 34 18 WSW 1011,1 21 27 0,0
23.09.2018 12:00:00 13,0 8,6 14,2 14,6 12,3 16,5 19 10 29 16 W 1011,3 24 22 0,0
23.09.2018 11:00:00 11,9 9,3 13,5 12,7 11,9 16,5 18 10 28 15 WSW 1012,0 13 38 0,0
23.09.2018 10:00:00 10,7 8,5 11,8 10,9 11,6 16,5 16 8 28 15 WSW 1012,0 14 28 0,0
23.09.2018 09:00:00 9,4 8,1 9,6 9,5 11,6 16,5 13 7 29 16 W 1012,0 9 5 0,0
23.09.2018 08:00:00 8,9 7,7 8,9 8,5 11,7 16,5 20 11 31 17 WSW 1011,9 9 2 0,0
23.09.2018 07:00:00 8,3 7,2 7,4 8,2 11,8 16,6 16 9 31 17 WSW 1011,6 9 0 0,0
23.09.2018 06:00:00 8,6 7,4 8,2 8,1 12,0 16,6 19 10 32 17 WSW 1011,8 11 0 0,0
23.09.2018 05:00:00 8,7 7,4 7,9 8,2 12,2 16,6 21 11 33 18 WSW 1012,0 13 0 0,0
23.09.2018 04:00:00 9,1 7,6 8,2 8,5 12,4 16,6 20 11 34 19 WSW 1012,2 20 0 0,0
23.09.2018 03:00:00 9,4 7,7 8,4 8,7 12,6 16,6 21 11 35 19 WSW 1012,3 24 0 0,0
23.09.2018 02:00:00 9,8 7,6 8,8 9,0 12,9 16,6 22 12 33 18 WSW 1012,6 27 0 0,0
23.09.2018 01:00:00 9,9 7,4 9,0 9,1 13,1 16,6 19 10 33 18 SW 1012,4 31 0 0,0
23.09.2018 00:00:00 10,1 7,2 9,2 9,4 13,4 16,7 19 11 37 20 WSW 1012,7 27 0 0,0
22.09.2018 23:00:00 10,7 7,3 9,7 9,6 13,7 16,7 26 14 38 21 WSW 1012,7 31 0 0,0
22.09.2018 22:00:00 10,4 7,5 9,6 9,8 14,1 16,7 18 10 33 18 WSW 1012,6 36 0 0,0
22.09.2018 21:00:00 10,9 7,0 9,9 10,2 14,5 16,7 25 13 38 20 WSW 1012,5 38 0 0,0
22.09.2018 20:00:00 11,0 7,1 10,1 11,2 14,8 16,7 24 13 38 20 WSW 1012,5 47 0 0,0
22.09.2018 19:00:00 11,7 8,4 11,1 12,3 15,0 16,7 16 8 41 22 SW 1012,5 42 18 0,0
22.09.2018 18:00:00 12,1 9,0 11,0 13,2 15,2 16,7 23 13 46 25 WSW 1012,7 6 6 0,1
22.09.2018 17:00:00 11,8 8,4 11,5 13,8 15,3 16,7 28 15 43 23 WSW 1013,0 24 5 0,1
22.09.2018 16:00:00 11,4 8,6 11,0 14,1 15,3 16,8 27 14 67 36 WSW 1013,2 42 3 4,4
22.09.2018 15:00:00 13,2 8,5 12,3 15,4 15,1 16,8 32 18 53 29 WSW 1013,0 14 15 0,2
22.09.2018 14:00:00 15,2 7,7 16,2 16,0 14,8 16,8 30 16 53 29 WSW 1012,6 22 21 0,0
22.09.2018 13:00:00 14,9 8,3 16,2 15,7 14,4 16,8 23 13 45 24 WSW 1013,0 16 23 0,0
22.09.2018 12:00:00 14,6 8,3 17,0 15,4 13,8 16,8 22 12 46 25 SW 1013,3 15 40 0,0
22.09.2018 11:00:00 13,5 9,0 15,7 13,6 13,5 16,8 20 11 40 22 WSW 1013,2 13 48 0,0
22.09.2018 10:00:00 12,2 8,6 14,2 11,4 13,4 16,8 22 12 41 22 WSW 1012,6 6 60 0,0
22.09.2018 09:00:00 10,9 8,0 10,7 10,0 13,4 16,8 27 15 42 23 WSW 1011,8 7 59 0,0
22.09.2018 08:00:00 9,8 7,5 9,4 9,5 13,6 16,8 21 11 39 21 WSW 1011,1 19 21 0,0
22.09.2018 07:00:00 8,9 7,0 8,2 9,0 13,9 16,8 18 10 37 20 SW 1010,3 37 0 0,0
22.09.2018 06:00:00 8,9 6,5 8,6 9,0 14,2 16,8 23 12 38 20 WSW 1010,0 46 0 0,0
22.09.2018 05:00:00 9,0 5,9 8,2 9,1 14,6 16,8 22 12 35 19 SW 1009,4 53 0 0,0
22.09.2018 04:00:00 9,6 5,8 8,6 9,3 15,0 16,8 21 11 37 20 WSW 1009,0 47 0 0,0
22.09.2018 03:00:00 10,0 5,4 8,9 9,7 15,5 16,8 27 15 46 25 WSW 1008,2 51 0 0,0
22.09.2018 02:00:00 10,7 6,2 9,7 10,3 16,0 16,8 24 13 43 23 SW 1007,4 47 0 0,0
22.09.2018 01:00:00 10,9 6,5 9,7 10,8 16,5 16,8 20 11 41 22 SW 1007,3 48 0 0,0
22.09.2018 00:00:00 11,4 7,3 10,4 11,6 17,0 16,8 21 11 31 17 WSW 1007,4 37 0 0,0
21.09.2018 23:00:00 11,4 7,9 10,2 12,3 17,6 16,8 14 8 37 20 WSW 1006,8 33 0 0,0
21.09.2018 22:00:00 12,0 7,4 11,4 13,4 18,1 16,8 25 14 41 22 W 1006,1 38 0 0,0
21.09.2018 21:00:00 13,0 10,7 12,5 14,7 18,6 16,7 21 11 32 18 WSW 1005,4 30 0 0,0
21.09.2018 20:00:00 13,0 11,7 12,5 15,2 19,2 16,7 16 9 34 18 WSW 1004,1 26 0 0,0
21.09.2018 19:00:00 13,1 11,7 12,6 16,0 19,8 16,7 16 9 46 25 WSW 1003,6 29 0 0,6
21.09.2018 18:00:00 13,7 12,0 13,1 16,9 20,5 16,7 26 14 41 22 W 1003,7 5 0 0,9
21.09.2018 17:00:00 13,2 12,7 13,2 18,3 21,0 16,7 29 16 79 43 WNW 1002,7 3,4 0 5,5
21.09.2018 16:00:00 15,9 13,7 15,2 24,9 20,8 16,7 53 28 91 49 W 1001,0 3,6 0 0,0
21.09.2018 15:00:00 27,0 11,5 27,5 26,7 20,2 16,7 28 15 59 32 SSW 999,0 21 10 0,0
21.09.2018 14:00:00 27,6 12,4 29,5 26,1 19,5 16,7 28 15 47 26 SSW 1000,2 11 30 0,0
21.09.2018 13:00:00 26,8 14,2 29,8 25,1 18,7 16,7 17 9 39 21 S 1000,9 14 42 0,0
21.09.2018 12:00:00 25,1 13,5 27,5 23,3 18,0 16,7 20 11 39 21 S 1002,0 11 60 0,0
21.09.2018 11:00:00 23,1 13,3 25,0 20,1 17,7 16,7 21 12 38 20 S 1003,0 7 59 0,0
21.09.2018 10:00:00 20,7 13,2 21,9 17,6 17,6 16,7 16 9 31 17 S 1003,9 10 56 0,0
21.09.2018 09:00:00 19,0 12,5 18,1 16,1 17,6 16,7 14 8 27 14 S 1004,6 19 53 0,0
21.09.2018 08:00:00 18,1 12,4 17,0 15,7 17,8 16,7 14 7 29 16 S 1005,5 21 15 0,0
21.09.2018 07:00:00 18,2 12,8 16,8 15,6 18,0 16,7 14 8 25 14 S 1006,4 23 0 0,0
21.09.2018 06:00:00 18,1 13,0 16,6 15,8 18,3 16,7 13 7 23 12 S 1007,2 21 0 0,0
21.09.2018 05:00:00 18,1 13,2 16,7 16,1 18,5 16,6 14 8 22 12 S 1008,1 20 0 0,0
21.09.2018 04:00:00 17,9 13,5 16,7 16,4 18,8 16,6 13 7 20 11 S 1009,2 17 0 0,0
21.09.2018 03:00:00 17,9 13,4 16,7 16,7 19,1 16,6 12 6 24 13 S 1009,9 20 0 0,0
21.09.2018 02:00:00 18,0 13,7 16,5 17,1 19,4 16,6 10 6 20 11 SSW 1010,7 20 0 0,0
21.09.2018 01:00:00 18,4 14,0 17,0 17,5 19,7 16,6 14 7 22 12 S 1011,3 20 0 0,0
21.09.2018 00:00:00 18,8 13,6 17,5 17,9 20,1 16,6 12 6 19 10 S 1011,9 23 0 0,0
20.09.2018 23:00:00 19,1 13,8 17,5 18,5 20,5 16,6 11 6 17 9 S 1012,3 22 0 0,0
20.09.2018 22:00:00 19,6 13,4 17,7 19,2 20,9 16,6 10 5 15 8 SSW 1012,7 22 0 0,0
20.09.2018 21:00:00 20,6 12,9 18,5 20,1 21,3 16,6 10 5 16 9 S 1013,0 24 0 0,0
20.09.2018 20:00:00 19,9 13,4 17,4 21,5 21,6 16,6 8 4 13 7 S 1013,1 21 0 0,0
20.09.2018 19:00:00 22,7 12,6 20,7 23,6 21,7 16,6 7 4 18 10 SSW 1013,4 26 24 0,0
20.09.2018 18:00:00 23,8 12,2 23,6 24,8 21,6 16,6 11 6 27 15 SW 1013,8 30 2 0,0
20.09.2018 17:00:00 24,4 12,0 25,1 26,0 21,3 16,6 12 6 36 19 SW 1014,1 31 2 0,0
20.09.2018 16:00:00 24,4 12,0 25,4 26,8 20,8 16,6 18 10 41 22 SW 1014,3 20 30 0,0
20.09.2018 15:00:00 24,8 12,2 27,5 26,6 20,2 16,6 24 13 45 24 WSW 1014,7 20 41 0,0
20.09.2018 14:00:00 23,3 12,6 23,9 25,6 19,6 16,6 22 12 49 26 WSW 1015,0 21 38 0,0
20.09.2018 13:00:00 23,1 12,5 24,8 25,0 18,8 16,5 25 14 42 23 SW 1015,3 14 58 0,0
20.09.2018 12:00:00 22,4 13,2 25,2 22,8 18,1 16,5 24 13 40 21 WSW 1015,6 8 60 0,0
20.09.2018 11:00:00 21,1 13,2 23,8 20,3 17,7 16,5 17 9 31 17 SW 1015,9 8 60 0,0
20.09.2018 10:00:00 19,9 13,0 22,1 17,7 17,6 16,5 16 9 27 14 SW 1016,2 11 60 0,0
20.09.2018 09:00:00 18,3 12,7 17,8 16,0 17,8 16,5 14 7 26 14 SW 1016,2 14 42 0,0
20.09.2018 08:00:00 17,0 12,3 15,9 15,6 18,0 16,5 16 9 23 13 WSW 1016,0 18 0 0,0
20.09.2018 07:00:00 16,7 12,3 15,3 15,9 18,2 16,5 11 6 21 12 SW 1015,5 18 0 0,0
20.09.2018 06:00:00 17,4 12,3 16,0 16,4 18,5 16,5 10 5 26 14 SW 1015,6 21 0 0,0
20.09.2018 05:00:00 18,6 12,2 17,4 16,7 18,7 16,5 17 9 26 14 WSW 1015,4 21 0 0,0
20.09.2018 04:00:00 18,3 12,8 16,7 16,6 19,0 16,5 13 7 21 11 WSW 1015,3 20 0 0,0
20.09.2018 03:00:00 17,7 13,5 15,4 17,1 19,3 16,4 9 5 19 10 W 1015,3 16 0 0,0
20.09.2018 02:00:00 18,1 13,6 16,6 17,6 19,6 16,4 13 7 26 14 W 1015,2 19 0 0,0
20.09.2018 01:00:00 19,9 13,3 18,7 17,9 19,9 16,4 20 11 29 16 W 1015,2 21 0 0,0
20.09.2018 00:00:00 19,7 13,5 17,9 18,3 20,3 16,4 11 6 19 10 SSW 1014,9 19 0 0,0
19.09.2018 23:00:00 19,8 13,7 18,0 18,9 20,7 16,4 11 6 17 9 SSW 1014,9 19 0 0,0

tt = Température de l'air
td = dewpoint
tt 5cm = Température de l'air 5cm
tt -5cm = Température de l'air -5cm
tt -20cm = Température de l'air -20cm
tt -100cm = Température de l'air -100cm
ff = Vitesse du vent
fx = gusts
dd = Direction du vent
ppp = reduced air pressure
vv = visibility
sd = Ensoleillement
rr = Quantités de précipitations

stations d'obs. à proximité